Ask Your Question

Jean-Baptiste FAURE's profile - karma

Jean-Baptiste FAURE's karma change log

0 10 How I can delete empty line after table in Writer? ( 2018-12-03 13:12:08 +0200 )

15 0 How I can delete empty line after table in Writer? ( 2016-11-30 20:23:30 +0200 )

0 -15 How I can delete empty line after table in Writer? ( 2016-11-30 20:23:20 +0200 )

15 0 How do I keep cross-references in subdocuments from mixing up in a master document? ( 2016-02-26 00:01:13 +0200 )

15 0 Browser style forward and back buttons in Calc. ( 2015-11-12 14:40:46 +0200 )

15 0 Should (could) the locale be a document property? ( 2015-11-12 14:40:02 +0200 )

15 0 Insert chart option grayed out ( 2015-11-02 03:56:05 +0200 )

15 0 How do I save a Power Presentation in Libre Office ? ( 2015-11-01 19:48:50 +0200 )

10 0 Can I add custom colors to Options>Appearance ( 2015-10-31 02:06:42 +0200 )

15 0 How to format *part* of bibliography short names in the text? ( 2015-10-18 02:20:50 +0200 )

10 0 How to set tab stop using spaces? ( 2014-07-04 22:07:21 +0200 )

10 0 How secure is LibreOffice when using password protect? ( 2013-11-10 04:55:59 +0200 )

10 0 Polynomial equation for chart's trend line ( 2013-07-26 02:54:19 +0200 )

10 0 How do I save a Power Presentation in Libre Office ? ( 2013-05-24 08:25:03 +0200 )

0 -2 How do I save a Power Presentation in Libre Office ? ( 2013-05-23 01:38:35 +0200 )

0 -2 How I can delete empty line after table in Writer? ( 2013-05-18 15:26:35 +0200 )

10 0 bibliography - customise reference in text ( 2013-05-17 15:07:29 +0200 )

10 0 How to save all externally loaded images from .odt file ( 2013-05-12 16:04:42 +0200 )

15 0 Polynomial equation for chart's trend line ( 2013-05-05 18:50:03 +0200 )

15 0 FunctionAccess seems to be language localized ( 2013-04-29 02:35:34 +0200 )

15 0 Fitting in Large Equation ( 2013-03-02 06:48:21 +0200 )

10 0 Fitting in Large Equation ( 2013-03-02 06:48:14 +0200 )

15 0 Conditional formatting ( 2013-03-02 06:48:02 +0200 )

15 0 Adding a song into a presentation ( 2013-02-25 05:41:15 +0200 )

15 0 Windows Explorer stop working when open file with Libreoffice 3.6 ( 2013-02-23 06:57:39 +0200 )

15 0 Search and Replace non-printing characters. ( 2013-02-23 06:33:11 +0200 )

10 0 FunctionAccess seems to be language localized ( 2013-02-23 00:02:21 +0200 )

10 0 Impress presentation on a secondary monitor ( 2013-02-22 09:55:46 +0200 )

10 0 How I can delete empty line after table in Writer? ( 2013-02-13 13:20:14 +0200 )

15 0 Why does LibreOffice select all text in between when using shift-select? ( 2013-02-04 02:03:45 +0200 )

15 0 Can I add custom colors to Options>Appearance ( 2013-02-04 01:17:08 +0200 )

15 0 how do i register with libreoffice.forum.org ( 2013-02-04 00:42:12 +0200 )

15 0 howto get rid of hyperlinks in table of contents ( 2013-02-03 22:40:18 +0200 )

15 0 Can I make images available offline? ( 2013-02-03 20:50:25 +0200 )

15 0 Can I autoload a spreadsheet at startup? ( 2013-02-03 18:51:29 +0200 )

15 0 Attachmnet in PDF export ( 2013-02-03 18:51:10 +0200 )

15 0 Are there Writer templates included in the installation? ( 2013-02-03 18:42:38 +0200 )

15 0 Exporting doc to html, but endnotes are not at the end of section but at the end of document. ( 2013-02-03 18:41:40 +0200 )

15 0 Conditionally change data range of a chart in CALC? ( 2013-02-03 09:44:43 +0200 )

10 0 Conditionally change data range of a chart in CALC? ( 2013-02-03 09:44:42 +0200 )

10 0 What extra features do you get if you save the document as .odp vs saving it as another format? ( 2013-02-03 00:39:03 +0200 )

15 0 How secure is LibreOffice when using password protect? ( 2013-02-02 04:53:07 +0200 )

15 0 How to type all the math, stat, greek, equations EFFICIENTLY in libreoffice? ( 2013-02-01 16:38:07 +0200 )

10 0 Conditional formatting ( 2013-02-01 04:01:54 +0200 )

15 0 How do I open files with the spreadsheet application? ( 2013-01-31 07:30:15 +0200 )

10 0 How to format *part* of bibliography short names in the text? ( 2013-01-31 05:55:43 +0200 )

15 0 LO 3.6.1 Crashes windows explorer and says ODS files are corrupt. ( 2013-01-31 03:32:34 +0200 )

15 0 Opening Word documents ( 2013-01-30 21:55:57 +0200 )

15 0 PDF issues ( 2013-01-30 21:37:36 +0200 )

10 0 Will LO develop a better system for citation/references? ( 2013-01-30 07:27:33 +0200 )

15 0 text folding, pretty please!! ( 2013-01-27 09:40:52 +0200 )

10 0 Impress Normal and Notes in same view? ( 2013-01-27 07:55:54 +0200 )

10 0 How secure is LibreOffice when using password protect? ( 2012-12-10 12:09:35 +0200 )

15 0 Calc - sorting data on multiple sheets ( 2012-12-02 18:25:52 +0200 )

15 0 How to set tab stop using spaces? ( 2012-12-02 08:38:17 +0200 )

10 0 How I can delete empty line after table in Writer? ( 2012-11-22 09:46:30 +0200 )

15 0 How I can delete empty line after table in Writer? ( 2012-11-22 09:46:24 +0200 )

10 0 Can I make images available offline? ( 2012-11-21 17:38:32 +0200 )

15 0 Impress becomes slow when background picture was added ( 2012-11-21 11:28:24 +0200 )

10 0 Can I make images available offline? ( 2012-11-20 22:40:00 +0200 )

10 0 Can I make images available offline? ( 2012-11-20 20:56:26 +0200 )

10 0 PDF forms and nonstandard fonts ( 2012-11-20 03:46:05 +0200 )

10 0 Can I autoload a spreadsheet at startup? ( 2012-11-19 23:50:45 +0200 )

10 0 Attachmnet in PDF export ( 2012-11-19 22:56:54 +0200 )

10 0 Can I autoload a spreadsheet at startup? ( 2012-11-19 22:56:01 +0200 )

10 0 Exporting doc to html, but endnotes are not at the end of section but at the end of document. ( 2012-11-19 03:02:30 +0200 )

0 -1 [FEATURE REQUEST] Convert Image Format Inside LibreOffice ( 2012-11-18 19:54:55 +0200 )

0 -1 When we'll finally see a new UI? ( 2012-11-18 18:55:02 +0200 )

15 0 Password protection of editing ( 2012-11-10 22:14:19 +0200 )

10 0 Deleting files ( 2012-11-09 12:44:28 +0200 )

15 0 Deleting files ( 2012-11-09 12:44:26 +0200 )

15 0 are style settings accross LibO the same? ( 2012-11-08 02:00:21 +0200 )

10 0 How I can delete empty line after table in Writer? ( 2012-11-02 20:29:27 +0200 )

15 0 How do I delete actually opened text file using only LibreOffice options? Or another simple way. ( 2012-11-02 12:02:58 +0200 )

10 0 bibliography - customise reference in text ( 2012-10-01 10:29:30 +0200 )

15 0 Is it possible to prevent toolbar from spanning? ( 2012-09-24 20:01:57 +0200 )

15 0 How set default format (doc) in writer? ( 2012-09-19 09:06:57 +0200 )

15 0 Error: My LibreOffice Wirter closes when i try to open the bibliography database ( 2012-09-17 04:59:36 +0200 )

15 0 How to save all externally loaded images from .odt file ( 2012-09-16 10:53:54 +0200 )

15 0 Some text changes font size when re-opening ( 2012-09-15 01:48:35 +0200 )

10 0 hi devs, here are some reasons to feel bad ( 2012-09-12 11:10:49 +0200 )

10 0 hi devs, here are some reasons to feel bad ( 2012-09-12 08:09:32 +0200 )

10 0 hi devs, here are some reasons to feel bad ( 2012-09-12 06:45:59 +0200 )

10 0 LO 3.6.1 Crashes windows explorer and says ODS files are corrupt. ( 2012-09-11 20:22:12 +0200 )

15 0 Google Doc Viewer failed to read converted doc ( 2012-09-11 18:28:55 +0200 )

10 0 Why is shape alignment so fucking difficult in draw? ( 2012-09-11 16:30:54 +0200 )

10 0 LO 3.6.1 Crashes windows explorer and says ODS files are corrupt. ( 2012-09-11 15:33:27 +0200 )

15 0 Copy footer line to other pages from existing ( 2012-09-10 11:39:38 +0200 )

10 0 How set default format (doc) in writer? ( 2012-09-09 14:50:13 +0200 )

0 -10 How set default format (doc) in writer? ( 2012-09-09 14:50:07 +0200 )

10 0 How set default format (doc) in writer? ( 2012-09-09 14:50:07 +0200 )

0 -10 How set default format (doc) in writer? ( 2012-09-09 14:50:04 +0200 )

10 0 How set default format (doc) in writer? ( 2012-09-09 14:50:03 +0200 )

10 0 can't find program after install ( 2012-09-09 12:32:41 +0200 )

10 0 inconsistent page-down ( 2012-09-09 12:28:07 +0200 )

10 0 Google Doc Viewer failed to read converted doc ( 2012-09-09 12:23:10 +0200 )

10 0 How set default format (doc) in writer? ( 2012-09-09 12:18:17 +0200 )

10 0 Opening Word documents ( 2012-09-09 11:23:04 +0200 )

0 -10 Opening Word documents ( 2012-09-09 11:22:59 +0200 )

10 0 Opening Word documents ( 2012-09-09 11:22:29 +0200 )